Simultaneous Nadir Overpasses (SNOs) Predictions

Prediction of SNOs between GOES-16 and NOAA-19 Satellite Orbit:

Table of predicted SNOs for the next 14.0 days since TLE Epoch: 3/23/2024
Index Date Time (GOES-16) GOES-16 Lat,Lon NOAA-19 Lat,Lon Distance(km) Time Diff (sec)
1 03/23/2024 14:02:40 0.04, -75.22 -0.37, -73.50 196.25 80
2 03/26/2024 02:22:23 -0.04, -75.22 -0.74, -78.19 339.83 80
3 03/27/2024 02:07:31 -0.04, -75.23 -0.04, -75.23 0.72 80
4 03/28/2024 01:55:19 -0.04, -75.24 0.67, -72.26 340.17 80
5 03/30/2024 14:14:50 0.04, -75.28 0.42, -76.91 186.24 80
6 03/31/2024 14:05:17 0.03, -75.29 -0.26, -73.93 154.06 80
7 04/01/2024 13:53:03 0.03, -75.30 -0.94, -70.96 494.37 80
8 04/03/2024 02:25:03 -0.03, -75.30 -0.79, -78.64 381.53 80
9 04/04/2024 02:12:49 -0.02, -75.31 -0.11, -75.67 41.01 80
10 04/05/2024 01:57:56 -0.02, -75.32 0.56, -72.69 299.77 80
